Location: Calvera
(42.3882°N, 0.6137°E)
Time: 19:09:55
(UTC+00:00)

ALOS - Pass Details

Date: 28 October 2020
Orbit: 683 x 685 km, 97.9° (Epoch: 23 November)

Event Time Altitude Azimuth Distance (km) Brightness Sun altitude
Rises 05:07:09 0° 6° (N) 3,057 5.6 -15.2°
Reaches altitude 10° 05:09:28 10° 0° (N) 2,137 4.8 -14.7°
Maximum altitude 05:13:54 45° 289° (WNW) 929 2.5 -13.9°
Drops below altitude 10° 05:18:20 10° 217° (SW) 2,123 4.5 -13.1°
Sets 05:20:38 0° 211° (SSW) 3,034 5.4 -12.7°
